EDT,Max TemperatureF,Mean TemperatureF,Min TemperatureF,Max Dew PointF,MeanDew PointF,Min DewpointF,Max Humidity, Mean Humidity, Min Humidity, Max Sea Level PressureIn, Mean Sea Level PressureIn, Min Sea Level PressureIn, Max VisibilityMiles, Mean VisibilityMiles, Min VisibilityMiles, Max Wind SpeedMPH, Mean Wind SpeedMPH, Max Gust SpeedMPH,PrecipitationIn, CloudCover, Events, WindDirDegrees
2012-10-1,66,53,39,52,42,37,100,70,40,29.97,29.93,29.81,10,5,0,10,2,15,0.17,4,Fog-Rain,68
2012-10-2,77,65,53,67,62,52,100,90,79,29.88,29.82,29.77,10,7,1,9,1,13,0.24,7,Rain,56
2012-10-3,74,65,56,66,61,51,100,73,46,30.17,30.01,29.88,10,7,1,13,3,26,0.00,5,,196
2012-10-4,76,65,54,56,54,51,100,72,43,30.21,30.17,30.13,10,8,2,15,3,23,0.00,1,,173
2012-10-5,76,63,50,58,54,47,93,73,53,30.13,30.04,29.93,10,10,6,14,5,29,0.04,4,Rain,264
2012-10-6,58,51,44,47,41,32,93,66,39,30.14,30.02,29.92,10,9,3,14,5,20,0.33,5,Rain,299
2012-10-7,50,44,37,40,38,33,100,83,66,30.21,30.15,30.09,10,8,0,9,2,20,0.03,6,Fog-Rain,299
2012-10-8,51,42,33,39,36,33,100,75,50,30.29,30.24,30.20,10,5,0,9,2,15,0.00,3,Fog,147
2012-10-9,60,46,32,41,35,30,100,69,37,30.25,30.16,30.03,10,5,0,10,3,17,0.00,2,Fog,174
2012-10-10,57,47,36,43,38,28,89,65,41,30.22,30.02,29.94,10,10,6,16,7,26,T,5,Rain,260
2012-10-11,58,44,29,34,30,27,92,61,30,30.33,30.25,30.17,10,10,6,13,4,18,0.00,0,,167
2012-10-12,56,45,33,38,32,26,89,61,32,30.44,30.33,30.19,10,10,10,14,5,23,0.00,3,,12
2012-10-13,68,48,28,49,36,26,92,66,39,30.43,30.29,30.06,10,10,10,15,5,21,T,0,Rain,165
2012-10-14,77,70,62,55,53,51,67,57,46,30.05,29.89,29.68,10,10,10,26,10,41,T,5,Rain,190
2012-10-15,69,59,48,55,47,43,86,74,61,29.94,29.82,29.67,10,9,2,20,6,29,0.13,8,Rain,274
2012-10-16,59,51,42,40,38,36,89,67,44,30.02,29.95,29.88,10,10,10,12,3,15,0.00,3,,254
2012-10-17,74,57,40,49,44,38,92,64,35,29.90,29.83,29.69,10,10,9,12,6,17,0.00,2,,145
2012-10-18,63,54,44,49,45,41,93,72,51,29.81,29.70,29.60,10,10,5,20,7,33,0.13,4,Rain,152
2012-10-19,64,54,44,45,41,31,93,62,30,29.78,29.69,29.60,10,10,10,18,7,24,0.11,5,Rain,171
2012-10-20,56,50,43,45,42,38,93,74,54,29.98,29.79,29.71,10,10,6,15,5,20,0.08,8,Rain,221
2012-10-21,61,49,36,42,38,35,93,69,44,30.17,30.12,30.00,10,10,6,9,2,15,0.00,2,,157
2012-10-22,75,56,37,53,44,35,100,71,41,30.21,30.14,30.07,10,9,4,10,4,14,0.00,1,,130
2012-10-23,77,65,53,53,51,48,83,61,38,30.07,30.05,30.01,10,10,10,15,4,21,0.01,3,Rain,203
2012-10-24,79,66,53,54,52,49,86,62,37,30.14,30.09,30.04,10,10,10,12,3,20,0.01,3,,175
2012-10-25,81,65,48,51,48,46,93,62,30,30.12,30.05,29.99,10,10,9,13,4,20,0.00,0,,140
2012-10-26,69,59,49,53,48,45,83,68,52,30.12,30.08,30.00,10,10,10,17,7,35,0.02,5,,357
2012-10-27,50,48,45,46,44,42,93,87,80,30.09,30.04,30.00,10,8,2,14,8,21,0.74,8,Rain,352
2012-10-28,47,44,40,42,39,37,92,87,82,30.06,29.98,29.91,10,9,5,16,10,23,0.79,8,Rain,349
2012-10-29,43,42,40,39,38,37,89,86,82,29.92,29.73,29.37,10,9,7,28,14,43,0.92,8,Rain,335
2012-10-30,47,44,40,45,41,37,93,88,82,29.44,29.25,29.17,10,7,2,30,14,43,0.72,8,Rain,309
2012-10-31,41,40,38,38,37,35,92,86,79,29.70,29.60,29.45,10,8,2,16,7,22,0.12,8,Rain,268